Regional Weather Roundup
Issued by NWS

Home | Current Version | Previous Version | Graphics & Text | Print | Product List | Glossary On
Versions: 1 2 3 4 5 6 7 8 9 10 11 12 13 14 15 16 17 18 19 20 21 22 23 24 25 26 27 28 29 30 31 32 33 34 35 36 37 38 39 40 41 42 43 44 45 46 47 48 49 50
000
ASUS45 KBOU 301907
RWRCO

WEATHER ROUNDUP FOR COLORADO
NATIONAL WEATHER SERVICE DENVER/BOULDER CO
1200 PM MST FRI JAN 30 2015

NOTE: "FAIR" INDICATES FEW OR NO CLOUDS BELOW 12000 FEET WITH NO
SIGNIFICANT WEATHER AND/OR OBSTRUCTIONS TO VISIBILITY.

COZ001>005-013-030-031-302000-
...NORTHWEST COLORADO...

CITY           SKY/WX    TMP DP  RH WIND       PRES   REMARKS
CRAIG          CLOUDY    36  31  82 CALM      30.15F
HAYDEN         CLOUDY    36  28  75 SE6       30.14F
MEEKER         CLOUDY    34  32  92 CALM      30.13F
MOUNT WERNER   NOT AVBL
STEAMBOAT SPGS CLOUDY    34  28  77 CALM      30.15F
WALDEN         CLOUDY    34  27  75 CALM      30.17F
$$

COZ006>008-011-302000-
...WEST CENTRAL VALLEYS...

CITY           SKY/WX    TMP DP  RH WIND       PRES   REMARKS
GRAND JUNCTION CLOUDY    47  32  56 SE7       30.09F
MONTROSE       CLOUDY    42  32  67 CALM      30.12F
EAGLE          CLOUDY    37  28  70 CALM      30.18F
RIFLE          CLOUDY    41  29  62 CALM      30.11F
DELTA          DRIZZLE   44  35  70 CALM      30.12F
NUCLA          DRIZZLE   37  36  93 CALM      30.14F
$$

COZ017>023-064>068-302000-
...SOUTHWEST COLORADO...

CITY           SKY/WX    TMP DP  RH WIND       PRES   REMARKS
DURANGO        SNOW      32  31  96 E5        30.17F VSB 1/2 WCI  27
CORTEZ         LGT RAIN  39  34  82 VRB6      30.13F
PAGOSA SPRINGS LGT SNOW  35  34  96 CALM      30.19F VSB 1
TELLURIDE      CLOUDY    36  32  85 CALM      30.12F
WOLF CREEK PAS   N/A     23  23 100 MISG      30.24
$$

COZ009-010-012-014-032>034-037-058>063-302000-
...CENTRAL COLORADO...

CITY           SKY/WX    TMP DP  RH WIND       PRES   REMARKS
ASPEN          CLOUDY    33  24  69 NW3       30.13F
BUENA VISTA    LGT SNOW  32  28  84 CALM      30.20F
COPPER MTN     LGT SNOW  32  21  64 S5        30.22F WCI  27
BERTHOUD PASS  CLOUDY    18  12  79 E26       30.23F WCI  -1
COTTONWOOD PAS LGT SNOW  32  28  86 CALM      30.21F
GUNNISON       CLOUDY    34  28  80 N7        30.20F WCI  28
KREMMLING      CLOUDY    30  23  74 CALM      30.19F
LEADVILLE      CLOUDY    27  20  75 CALM      30.18F
MONARCH PASS   CLOUDY    23  21  93 MISG      30.32F
SALIDA         CLOUDY    34  31  87 CALM      30.27F
SUNLIGHT       CLOUDY    32  27  80 E3          N/A
WILKERSON PASS CLOUDY    28  19  69 NE9       30.24F WCI  20
$$

COZ069>075-302000-
...SAN LUIS VALLEY/SANGRE DE CRISTO MOUNTAINS...

CITY           SKY/WX    TMP DP  RH WIND       PRES   REMARKS
ALAMOSA        CLOUDY    32  27  81 CALM      30.21F
LA VETA PASS   LGT SNOW  27  25  93 S8        30.18F VSB 3/4 WCI  18
SAGUACHE       MIX PCPN  30  28  93 CALM      30.22F
$$

COZ035-036-038>040-302000-
...NORTHERN COLORADO FRONT RANGE...

CITY           SKY/WX    TMP DP  RH WIND       PRES   REMARKS
DENVER INTL AP CLOUDY    43  26  51 W3        30.15F
DMNS CITY PARK   N/A     46  25  45 W3        30.13F
AURORA         PTSUNNY   43  26  51 NW5       30.15F
FRONT RANGE AP CLOUDY    45  30  57 W3        30.14F
ERIE MUNI ARPT CLOUDY    45  26  48 CALM      30.15F
BOULDER MUN AP CLOUDY    45  28  53 CALM      30.14F
CENTENNIAL     CLOUDY    45  26  47 NW8       30.14F
BROOMFIELD     PTSUNNY   45  27  49 CALM      30.15F
FORT COLLINS   CLOUDY    43  28  56 S6        30.17F
LONGMONT       CLOUDY    49  28  44 CALM      30.17F
$$

COZ041-046-047-076>085-087-088-302000-
...PIKES PEAK/PALMER DIVIDE AND SOUTHERN FOOTHILLS...

CITY           SKY/WX    TMP DP  RH WIND       PRES   REMARKS
COLO. SPRINGS  CLOUDY    39  25  57 SE3       30.17F
A. F. ACADEMY  CLOUDY    37  24  58 SW2       30.16F
ELLICOTT       CLOUDY   N/A N/A N/A S9        30.16F
FALCON         CLOUDY    38  22  51 S8        30.17F
FORT CARSON    CLOUDY    39  26  58 VRB2      30.15F
LIMON          CLOUDY    42  28  57 S16G23    30.17F
MONUMENT HILL  CLOUDY    41  25  52 NW6       30.13F
TRINIDAD       SNOW      33  31  92 NW7       30.19F VSB 1/2 WCI  27
$$

COZ042>045-048>051-090-091-302000-
...NORTHEAST COLORADO...

CITY           SKY/WX    TMP DP  RH WIND       PRES   REMARKS
GREELEY ARPT   CLOUDY    41  27  56 SW6       30.14F
AKRON          CLOUDY    45  28  51 SW14      30.14F
BURLINGTON     CLOUDY    43  31  62 S31G39    30.21F
WRAY           PTSUNNY   51  33  49 S24G32    30.17F
STERLING       CLOUDY    45  30  57 SW6       30.14F
HOLYOKE        NOT AVBL
FORT MORGAN    CLOUDY    40  28  63 W9        30.16F
$$

COZ086-089-092>099-302000-
...SOUTHEAST COLORADO...

CITY           SKY/WX    TMP DP  RH WIND       PRES   REMARKS
PUEBLO         CLOUDY    41  26  55 CALM      30.16F
LA JUNTA       CLOUDY    42  34  73 S14       30.19F
LAMAR          CLOUDY    44  30  57 S16G26    30.24F
SPRINGFIELD      N/A     36  30  79 S21G31    30.28
$$


USA.gov is the U.S. government's official web portal to all federal, state and local government web resources and services.